Погода в Цимлянске

Хотите узнать прогноз погоды в Цимлянске? Тогда Вам сюда: Погода в Цимлянске

Поиск расширенной информации на нашем сайте:

Полезная информация:

Новости сайта



02.01.2020
Опубликован Долгосрочный прогноз погоды по городам России и ближнего зарубежья на январь 2020 года.
Карты: Прогноз на январь и февраль 2020 года, Сравнение прогнозируемой аномалии приземной температуры воздуха на январь 2020 года по разным моделям.




Погода в Цимлянске - сегодня

Время (UTC), дата Ветер
(°,м/с) 
Видим.   Явления Облачность Т
(°С)
Тd
(°С)
f(%) Тe
(°С)
Pmin
(гПа)
dP
(гПа)
Po
(мм)
O2
(г/м3)
Тmin Tmax R s Состояние
почвы
15 18.10.20 250 (З) 2{10}  20000 м    10/0 средняя, верхняя 
[Ac trans|Ci fib]
+23.7 +4.7 29 +24  1007.1  -0.6  750  277    +26.9       
18 18.10.20 230 (ЮЗ) н/о    н/о 
+17.3 +13.6 79 +25  1014.6  0.9  755  283           
21 18.10.20 270 (З) н/о    н/о 
+15.2 +12.2 82 +20  1015.8  1.1  756  286           
00 19.10.20 350 (С) н/о    н/о 
+14.4 +8.7 69 +15  1016.1  0.3  756  288           
03 19.10.20 010 (С) н/о    н/о 
+13.1 +7.3 68 +14  1017.6  1.4  757  290  +12.9       
06 19.10.20 010 (С) н/о    н/о 
+12.4 +7.9 74 +12  1018.7  1.1  758  291  +12.4         
09 19.10.20 060 (СВ) н/о    н/о 
+15.7 +7.7 59 +16  1018.2  -0.3  758  287           
12 19.10.20 080 (В) н/о    н/о 
+14.6 +9.7 72 +16  1017.1  -0.3  757  288           
15 19.10.20 060 (СВ) н/о    н/о 
+13.9 +8.9 72 +15  1017.1  757  289    +16.9       
18 19.10.20 270 (З) н/о    н/о 
+11.2 +10 92 +13  1019.4  2.2  759  292           
21 19.10.20 350 (С) н/о    н/о 
+9.2 +7.9 92 +10  1020.5  1.1  759  295           
00 20.10.20 260 (З) н/о    н/о 
+8.7 +8 95 +9  1021.7  1.2  760  295           
03 20.10.20 300 (СЗ) н/о    н/о 
+7.7 +6.7 93 +8  1022.9  1.2  761  297  +7.7    10     
06 20.10.20 280 (З) н/о    н/о 
+9 +5.9 81 +9  1024.1  1.1  762  296  +7         
09 20.10.20 280 (З) н/о    н/о 
+12 +5.3 64 +12  1024.1  0.1  762  293           
12 20.10.20 290 (З) н/о    н/о 
+13.2 +3.2 51 +13  1023.3  -0.8  761  292           
15 20.10.20 280 (З) н/о    н/о 
+9.2 +0.3 54 +9  1023.9  0.4  762  297    +13.6       
18 20.10.20 270 (З) н/о    н/о 
+6.4 +0.3 65 +7  1024.7  0.7  762  300           
21 20.10.20 260 (З) н/о    н/о 
+5.8 +0.9 71 +7  1025.4  0.7  763  301           
00 21.10.20 290 (З) н/о    н/о 
+4.6 +0.3 74 +4  1026.2  0.7  763  302           
03 21.10.20 280 (З) н/о    н/о 
+2.5 -0.5 81 +3  1027.5  1.3  764  305  +2.5         
06 21.10.20 280 (З) н/о    н/о 
+5.6 +0.8 71 +5  1029.1  1.7  766  302  +1.6         
09 21.10.20 270 (З) н/о    н/о 
+11.4 +0.7 48 +11  1028.4  -0.5  765  296           
12 21.10.20 250 (З) н/о    н/о 
+12.3 -0.1 42 +12  1027.5  -0.9  765  295           
15 21.10.20 250 (З) н/о    н/о 
+9.2 +0.2 53 +10  1027  -0.7  764  298    +12.5       
Время (UTC), дата Ветер
(°,м/с) 
Видим.   Явления Облачность Т
(°С)
Тd
(°С)
f(%) Тe
(°С)
Pmin
(гПа)
dP
(гПа)
Po
(мм)
O2
(г/м3)
Тmin Tmax R s Состояние
почвы

Для получения пояснительной информации подведите курсор к названию столбца.

ПОГОДА в Цимлянске - архив

Всё, что Вы хотите узнать о погоде в Цимлянске - удобно и подробно!

Выберите нужную дату (начиная с 1 января 2019* года) и нажмите кнопку "Найти".
Будут отображены архивные сводки погоды по пункту Цимлянск, начиная с указанной даты.


Отображать данные в формате CSV (для использования в таблицах Excel)


Внимание! Наш архив погоды предназначен исключительно для личного некоммерческого использования в познавательных целях. Если Вам необходимы официальные справки о состоянии погоды (для производственных, юридических, коммерческих и т.п. целей), обращайтесь в органы Росгидромета.

*Примечание: данная дата относится к архиву по метеостанциям СССР (Россия, СНГ, Балтия).
Архив по метеостанциям Зарубежной Европы и Азии (кроме Китая) хранится 10 дней, по другим регионам земного шара (Китай, Африка, Америка, Австралия, Океания) - 1 день.

Цимлянск - район местоположения метеостанции


Название, широта, долгота, высота метеостанции:
Цимлянск 47.6°ш. 42.1°д. 65 м над ур. моря [Российская Федерация]

Дополнительная информация

В oтличие oт бoльшинства пoгoдных сайтoв мы публикуем пoдрoбную метеoинфoрмацию в детальнoм прoфессиoнальнoм фoрмате.

Характеристики температуры и влажнoсти вoздуха измеряются на высoте 2 м в тени вдали oт зданий и деревьев.
Скoрoсть ветра измеряется на высoте 10 м (на урoвне рoста челoвека скoрoсть ветра ниже в 1.5-2 раза). Если метеoстанция нахoдится в гoрoде или в лесу, тo скoрoсть ветра занижена на 2-4 м/с пo сравнению с oткрытым местoм. Скoрoсть ветра над акватoриями крупных рек и oзёр, а также на вершинах хoлмoв на 2-5 м/с выше, чем в oбычных услoвиях.
Атмoсфернoе давление в разных тoчках местнoсти мoжет значительнo oтличаться oт давления на метеoстанции, в зависимoсти oт услoвий рельефа (при пoдъёме на 10 м давление пoнижается примернo на 1 мм рт.ст.).